Regional Weather Roundup
Issued by NWS Wakefield, VA

Home | Current Version | Previous Version | Graphics & Text | Print | Product List | Glossary On
Versions: 1 2 3 4 5 6 7 8 9 10 11 12 13 14 15 16 17 18 19 20 21 22 23 24 25 26 27 28 29 30 31 32 33 34 35 36 37 38 39 40 41 42 43 44 45 46 47 48 49 50
000
ASUS41 KAKQ 281015
RWRAKQ

REGIONAL WEATHER ROUNDUP
NATIONAL WEATHER SERVICE WAKEFIELD VA
600 AM EDT TUE JUL 28 2015

Note: "fair" indicates few or no clouds below 12,000 feet with no
significant weather and/or obstructions to visibility. * = Denotes
station may not report precipitation (e.g., rain,snow,etc.),
thunder or fog.

VAZ042-051-052>054-056-281100-
NORTHERN VIRGINIA

CITY           SKY/WX    TMP DP  RH WIND       PRES   REMARKS
WASH NATIONAL  PTCLDY    77  72  84 CALM      30.00S
DULLES         CLEAR     70  69  97 CALM      30.01R FOG
FORT BELVOIR   CLEAR     69  68  96 CALM      30.00S
QUANTICO       CLEAR     72  68  87 NW5       30.00S
FREDERICKSBRG* CLEAR     71  71 100 CALM      29.99R
STAFFORD*      CLEAR     65  64  96 CALM      30.03S
WARRENTON      CLEAR     70  70 100 CALM      29.99F
CULPEPER*      CLEAR     68  67  99 CALM      30.00S FOG
MANASSAS*      CLEAR     70  70 100 CALM      30.00S
LEESBURG*      PTCLDY    70  70 100 NW7       30.02S FOG
WINCHESTER     CLOUDY    70  70 100 CALM      30.02S FOG
FRONT ROYAL*   FAIR      68  66  94 CALM      30.01S
LURAY*         FOG       70  70 100 CALM      30.02R VSB<1/4
$$

VAZ048-049-060>072-079>083-281100-
CENTRAL AND SOUTH CENTRAL VIRGINIA

CITY           SKY/WX    TMP DP  RH WIND       PRES   REMARKS
RICHMOND       PTCLDY    73  71  93 S3        30.00R
CHESTERFIELD*  FAIR      72  61  68 CALM      30.01S
PETERSBURG*    CLEAR     71  71 100 CALM      30.01R
HANOVER        FOG       68  68 100 CALM      30.01R VSB 3/4
TAPPAHANNOCK*  PTCLDY    70  67  90 CALM      30.00S
QUINTON*       FAIR      72  71  98 CALM      29.99R
CHARLOTTSVILLE FOG       71  70  96 CALM      30.00R VSB 3/4
GORDONSVILLE*  FAIR      66  66 100 S3        30.00R FOG
ORANGE*        FOG       70  68  94 CALM      30.01S VSB 1
LOUISA*        FOG       68  66  94 CALM      29.99R VSB 1/2
BUMPASS*       FAIR      68  67  99 CALM      30.00R
FARMVILLE*     PTCLDY    73  73 100 CALM      29.99S FOG
CREWE*         FAIR     N/A N/A N/A CALM      30.00R
FORT PICKETT*  FAIR      69  68  98 CALM      30.01R
CHASE CITY*    PTSUNNY   74  74 100 CALM      30.00S
CLARKSVILLE*   CLOUDY    72  72 100 CALM      30.00R
SOUTH HILL*    MOCLDY    70  70  98 CALM      30.07R
LAWRENCEVILLE* FAIR      70  70 100 CALM      30.01R
EMPORIA*       PTCLDY    70  68  94 CALM      30.02R
$$

VAZ088>098-281100-
SOUTHEAST VIRGINIA

CITY           SKY/WX    TMP DP  RH WIND       PRES   REMARKS
NORFOLK        MOCLDY    76  70  82 S3        30.01R
VIRGINIA BEACH MOCLDY    74  70  87 CALM      30.00S
NORFOLK NAVAL  MOCLDY    76  71  85 CALM      30.02S
WEST POINT*    PTCLDY    76  71  83 CALM      30.01S
SALUDA*        PTSUNNY   73  71  96 CALM      30.00R
NEWPORT NEWS   CLOUDY    76  72  87 S3        30.01R
LANGLEY AFB    DRIZZLE   77  72  83 S5        30.00F
FORT EUSTIS    MOCLDY    75  75 100 S1        29.99R
WILLIAMSBURG*  CLEAR     77  73  88 CALM      30.01S
HR EXEC AP*    CLOUDY    70  66  88 CALM      30.03S
FRANKLIN*      CLOUDY    71  70  96 CALM      30.01S
WAKEFIELD      CLOUDY    73  70  90 CALM      30.00S
$$

VAZ020-022-025-037-045-281100-
WEST CENTRAL AND SOUTHWEST VIRGINIA

CITY           SKY/WX    TMP DP  RH WIND       PRES   REMARKS
STAUNTON*      FOG       68  66  93 CALM      30.06R VSB 1
WAYNESBORO*    CLOUDY    68  68 100 CALM      30.05R VSB 1/4
HOT SPRINGS VA PTCLDY    67  67 100 SW3       30.15R
LYNCHBURG      CLOUDY    71  70  96 CALM      30.03S FOG
DANVILLE       PTCLDY    73  71  93 CALM      30.00F FOG
SOUTH BOSTON*  FAIR      71  70  95 CALM      30.00S
MARTINSVILLE   PTCLDY    69  69 100 CALM      30.04R FOG
ROANOKE        CLOUDY    73  69  87 N5        30.05S
BLACKSBURG     CLOUDY    69  69 100 CALM      30.11R FOG
DUBLIN*        FOG       69  69 100 CALM      30.09R VSB 3/4
MARION*        FOG       66  65  96 CALM      30.12R VSB 1/4
HILLSVILLE*    CLEAR     68  67  98 CALM      30.09R
RICHLANDS*     FAIR      68  68  98 CALM      30.10R
WISE*          MOCLDY    72  72 100 CALM      30.11R
ABINGDON*      CLOUDY    72  70  93 CALM      30.08R
$$

MDZ021>025-VAZ099-100-281100-
SOUTHERN MARYLAND AND THE DELMARVA PENINSULA

CITY           SKY/WX    TMP DP  RH WIND       PRES   REMARKS
PATUXENT RIVER CLEAR     72  70  93 CALM      29.99S
BAY BRIDGE APT   N/A     73  72  94 CALM      30.00S
LEONARDTOWN    CLEAR     70  68  94 CALM      30.01S
DOVER          CLEAR     72  72 100 W3        29.99S
GEORGETOWN     CLEAR     70  69  97 CALM      30.01S FOG
EASTON         CLEAR     73  73 100 CALM      30.04S
CAMBRIDGE      MOCLDY    72  68  88 CALM      29.99S
SALISBURY      CLEAR     69  68  96 CALM      30.00S FOG
OCEAN CITY     PTCLDY    73  70  90 CALM      30.00S
WALLOPS ISLAND MOCLDY    74  73  97 CALM      30.01S
ACCOMACK*      PTCLDY   N/A N/A N/A S3        30.00S
$$

NCZ012>017-030>032-281100-
NORTH CENTRAL AND EASTERN NORTH CAROLINA

CITY           SKY/WX    TMP DP  RH WIND       PRES   REMARKS
ROANOKE RAPIDS FAIR      68  68 100 CALM      30.00S FOG
RALEIGH        PTCLDY    74  71  91 CALM      30.00S
ELIZABETH CITY CLEAR     71  70  96 CALM      30.01R
AHOSKIE*       PTCLDY    67  66  97 CALM      30.01S
EDENTON*       MOCLDY    72  70  93 CALM      30.01R
CURRITUCK*     CLEAR     72  69  90 CALM      30.02R
KILL DEVIL HLS CLEAR     73  67  84 CALM      30.01R
MANTEO         CLEAR     70  68  95 CALM      30.02R
CAPE HATTERAS  CLEAR     74  70  87 NE5       30.00S
TARBORO*         N/A     69  68  96 CALM      30.01S FOG
GOLDSBORO      CLEAR     71  70  98 S1        29.98R
WASHINGTON     CLEAR     69  68  96 CALM      30.00S
GREENVILLE     CLEAR     72  70  94 CALM      30.02R
NEW BERN       CLEAR     71  68  90 CALM      30.01R FOG
WILMINGTON     CLEAR     71  70  96 NE5       29.97R
$$

VAZ048-281100-
ELSEWHERE

CITY           SKY/WX    TMP DP  RH WIND       PRES   REMARKS
HARRISBURG PA  CLOUDY    73  71  93 E3        30.01S FOG
BALTIMORE      PTCLDY    73  71  93 CALM      30.00R FOG
ANNAPOLIS      CLEAR     74  71  91 CALM      29.99S
ANDREWS AFB    CLEAR     70  69  99 CALM      30.00S
PHILADELPHIA   MOCLDY    75  71  87 W5        30.01S
HENDERSON NC   MOCLDY    72  69  90 SW3       30.01S
GREENSBORO     MOCLDY    71  71 100 CALM      30.01S
ROCKY MOUNT    CLEAR     69  68  96 CALM      30.01R FOG
$$

VAZ100-281100-
MARINE

STATION/POSITION TIME  TEMP    WIND        PRES    WAVE   SWELL
                       AIR SEA DIR/SP/G            HT/PER HT/PER
                 (UTC) (F)     (DEG/KT/KT) (MB)    (FT/S) (FT/S)
BRANDYWINE LGT   0900   74 76  220/  7/  7 1016.2S
CAPE MAY NJ      0900   73 79  110/  2/  3 1015.6F
LEWES DE         0900   74 71  220/  3/  4 1015.7F
15NM E FENWICK I 0950   78 77  190/  6/  8 1016.2R   2/11   2/11
OCEAN-CITY-INLET 0900   76 75  240/  5/  6 1015.1F
WACHAPREAGUE VA  0900   76 82  270/  2/  2 1016.1F
GOOSES REEF MD   1000   78 81  170/  2/  2 1016.7S
COVE POINT MD    0900   76     210/  1/  3 1016.4F
SOLOMONS ISLAND  0900      82                N/A
BISHOPS HEAD MD  0900   80 80  250/ 11/ 12 1014.9F
POTOMAC MD       1000   78 82  260/  6/  8 1014.6S   1
CAMBRIDGE MD     0900   75 83  210/  2/  3 1014.9F
LEWISETTA VA     0900   75 83  250/  5/  5 1015.2F
RAPPAHANNOCK LGT 0900          230/  8/  9 1016.4F
STINGRAY PT      1000   79 82  240/  8/ 10 1015.8F   1/ 3
YORK RVR RNG VA  0900   78     230/  6/  8 1015.3F
YORKTOWN VA      0900   77 82   CALM  /  4 1015.5S
JAMESTOWN VA     1000   76 84  180/  4/  6   N/A
DOMINION TERM VA 0900   77     220/  4/  5 1015.8S
KIPTOPEKE VA     0900      86  230/  6/  7   N/A
CHES BAY BRIDGE  0900   78 81  180/  5/  5 1015.6F
CAPE HENRY VA    0900   75     170/  4/  4   N/A
CHESAPEAKE LGHT  0900   79     210/  8/  9 1016.5F
WILLOUBY STN VA  0900   78     260/  4/  8 1016.8S
CAPE HENRY BUOY  0928      80                N/A     3/11   2/11
1ST LANDING BUOY 1000      80              1015.9R   1/ 4
CAPE CHARLES BUO 0926      79                N/A     2/11   2/11
OFFSHORE WE BUOY 0911      80                N/A     3/11   3/11
64NM E OF VA BCH 0950   79 80  150/  4/  4 1016.1R   2/11   2/11
DUCK PIER NC     0900   77 74  150/  3/  4 1015.0F
44100 DUCK FRF   0924      80                N/A     2/11   2/11
44056 DUCK FRF   0911      80                N/A     2/10   2/11
OREGON INLET NC  0900   76 81   90/  3/  4 1015.7F
HATTERAS NC      0900   77 82   60/  3/  4 1015.3F
CAPE LOOKOUT NC  1000   80      70/ 10/ 11 1015.1R
$$


USA.gov is the U.S. government's official web portal to all federal, state and local government web resources and services.